period_start,C,m1,H,J0,J1,J2,J3,J4,J5,JA,JB,JC,JD,JJ,JK,JN,#
2015-01-14 00:04:59,0.28,6.48,0.00,22.93,27.58,30.47,4.95,27.63,1030.29,2026.96,1621.96,1958.67,2125.61,350.48,352.86,24.87,0000 0000 0000 0000 000000
2015-01-14 00:10:00,0.28,6.49,0.00,22.93,27.60,30.50,4.86,27.57,1030.29,2026.93,1620.69,1957.59,2124.44,349.96,352.43,24.90,0000 0000 0000 0000 000000
2015-01-14 00:15:02,0.27,6.50,0.00,22.95,27.60,30.52,4.85,27.57,1030.29,2026.92,1619.40,1956.49,2123.30,349.97,352.34,24.93,0000 0000 0000 0000 000000
2015-01-14 00:20:03,0.26,6.51,0.00,22.92,27.60,30.54,4.89,27.88,1030.29,2026.89,1618.05,1955.44,2122.17,349.77,352.29,24.95,0000 0000 0000 0000 000000
2015-01-14 00:25:04,0.29,6.52,0.00,22.92,27.60,30.58,4.87,27.68,1030.29,2026.91,1616.68,1954.31,2120.90,349.61,352.07,24.98,0000 0000 0000 0000 000000
2015-01-14 00:30:05,0.26,6.53,0.00,22.90,27.60,30.60,4.87,27.81,1030.29,2026.83,1615.39,1953.25,2119.71,349.99,352.48,25.01,0000 0000 0000 0000 000000
2015-01-14 00:35:06,0.27,6.53,0.00,22.91,27.62,30.61,4.92,27.76,1030.30,2026.83,1614.07,1952.16,2118.60,350.48,352.91,25.04,0000 0000 0000 0000 000000
2015-01-14 00:40:08,0.27,6.54,0.00,22.89,27.62,30.63,4.86,27.61,1030.29,2026.70,1612.74,1951.04,2117.44,349.76,352.30,25.07,0000 0000 0000 0000 000000
2015-01-14 00:45:09,0.31,6.55,0.00,22.87,27.62,30.61,4.85,27.52,1030.27,2026.74,1611.50,1949.91,2116.30,349.91,352.56,25.10,0000 0000 0000 0000 000000
2015-01-14 00:50:10,0.26,6.56,0.00,22.88,27.62,30.67,4.93,27.80,1029.88,2026.67,1610.09,1948.87,2115.15,350.43,352.46,25.13,0000 0000 0000 0000 000000
2015-01-14 00:55:11,0.25,6.57,0.00,22.88,27.62,30.72,4.85,27.84,1030.05,2026.78,1608.84,1947.89,2114.12,349.86,352.12,25.16,0000 0000 0000 0000 000000
2015-01-14 01:00:13,0.28,6.58,0.00,22.85,27.62,30.68,4.85,27.64,1030.29,2026.87,1607.69,1946.92,2113.06,349.88,352.52,25.19,0000 0000 0000 0000 000000
2015-01-14 01:05:14,0.28,6.58,0.00,22.86,27.62,30.72,4.84,27.51,1030.29,2026.90,1606.48,1945.87,2111.92,350.31,352.85,25.22,0000 0000 0000 0000 000000
2015-01-14 01:10:15,0.23,6.59,0.00,22.84,27.62,30.72,4.92,27.64,1030.29,2026.85,1605.20,1944.83,2110.94,350.19,352.99,25.25,0000 0000 0000 0000 000000
2015-01-14 01:15:16,0.28,6.60,0.00,22.81,27.61,30.71,4.86,27.57,1030.29,2026.82,1603.89,1943.77,2109.83,349.95,352.74,25.28,0000 0000 0000 0000 000000
2015-01-14 01:20:18,0.32,6.61,0.00,22.82,27.60,30.71,4.83,27.56,1030.28,2026.94,1602.67,1942.71,2108.73,349.92,352.38,25.31,0000 0000 0000 0000 000000
2015-01-14 01:25:19,0.27,6.62,0.00,22.84,27.60,30.72,4.92,27.70,1030.26,2026.92,1601.47,1941.71,2107.62,349.78,352.42,25.34,0000 0000 0000 0000 000000
2015-01-14 01:30:20,0.25,6.62,0.00,22.83,27.60,30.72,4.85,27.68,1030.24,2026.95,1600.26,1940.72,2106.54,350.39,352.72,25.36,0000 0000 0000 0000 000000
2015-01-14 01:35:22,0.27,6.63,0.00,22.82,27.60,30.69,4.88,27.70,1029.96,2026.96,1599.05,1939.66,2105.41,349.88,352.35,25.39,0000 0000 0000 0000 000000
2015-01-14 01:40:23,0.30,6.64,0.00,22.80,27.60,30.71,4.93,27.73,1029.86,2026.97,1597.77,1938.58,2104.27,350.07,352.53,25.42,0000 0000 0000 0000 000000
2015-01-14 01:45:24,0.26,6.65,0.00,22.78,27.60,30.69,4.85,27.71,1029.83,2026.97,1596.59,1937.55,2103.12,349.75,352.21,25.45,0000 0000 0000 0000 000000
2015-01-14 01:50:25,0.27,6.66,0.00,22.77,27.60,30.70,4.85,27.70,1029.80,2026.97,1595.38,1936.50,2101.96,350.01,352.52,25.48,0000 0000 0000 0000 000000
2015-01-14 01:55:27,0.25,6.66,0.00,22.79,27.60,30.70,4.91,27.82,1029.80,2026.98,1594.05,1935.53,2100.88,349.91,352.70,25.51,0000 0000 0000 0000 000000
2015-01-14 02:00:28,0.30,6.67,0.00,22.77,27.60,30.69,4.85,27.75,1029.80,2026.97,1592.77,1934.45,2099.74,350.04,352.51,25.54,0000 0000 0000 0000 000000
2015-01-14 02:05:29,0.28,6.68,0.00,22.79,27.60,30.68,4.85,27.74,1029.79,2026.96,1591.52,1933.34,2098.61,349.74,352.24,25.57,0000 0000 0000 0000 000000
2015-01-14 02:10:30,0.26,6.69,0.00,22.80,27.59,30.68,4.88,27.77,1029.54,2026.98,1590.25,1932.31,2097.50,350.06,352.28,25.60,0000 0000 0000 0000 000000
2015-01-14 02:15:31,0.28,6.70,0.00,22.79,27.59,30.70,4.84,27.80,1029.34,2026.98,1588.88,1931.28,2096.34,349.98,352.16,25.63,0000 0000 0000 0000 000000
2015-01-14 02:20:33,0.27,6.71,0.00,22.79,27.57,30.69,4.86,27.79,1029.31,2026.98,1587.64,1930.18,2095.18,349.72,351.92,25.66,0000 0000 0000 0000 000000
2015-01-14 02:25:34,0.27,6.72,0.00,22.76,27.57,30.69,4.98,27.93,1029.31,2026.98,1586.31,1929.06,2094.02,350.17,352.49,25.69,0000 0000 0000 0000 000000
2015-01-14 02:30:35,0.27,6.72,0.00,22.74,27.57,30.66,4.80,27.96,1029.07,2026.99,1584.98,1928.04,2092.87,349.51,351.93,25.72,0000 0000 0000 0000 000000
2015-01-14 02:35:37,0.28,6.73,0.00,22.75,27.57,30.68,4.91,27.97,1029.26,2026.99,1583.77,1927.06,2091.82,349.89,352.24,25.75,0000 0000 0000 0000 000000
2015-01-14 02:40:38,0.30,6.74,0.00,22.72,27.57,30.67,4.90,27.98,1029.25,2026.99,1582.45,1926.03,2090.64,350.14,352.54,25.77,0000 0000 0000 0000 000000
2015-01-14 02:45:39,0.25,6.75,0.00,22.68,27.55,30.67,4.93,27.83,1029.31,2026.99,1581.40,1925.00,2089.59,350.11,352.51,25.80,0000 0000 0000 0000 000000
2015-01-14 02:50:40,0.25,6.76,0.00,22.71,27.55,30.67,4.88,27.73,1029.32,2026.99,1580.20,1924.02,2088.49,350.53,352.95,25.83,0000 0000 0000 0000 000000
2015-01-14 02:55:41,0.27,6.76,0.00,22.71,27.55,30.66,4.90,27.82,1029.32,2026.99,1578.90,1922.98,2087.33,349.84,352.24,25.86,0000 0000 0000 0000 000000
2015-01-14 03:00:43,0.28,6.77,0.00,22.71,27.55,30.66,4.86,27.74,1029.32,2026.99,1577.73,1921.96,2086.26,349.74,352.30,25.89,0000 0000 0000 0000 000000
2015-01-14 03:05:44,0.27,6.78,0.00,22.72,27.54,30.64,4.91,27.68,1029.37,2026.99,1576.55,1920.95,2085.17,350.14,352.56,25.92,0000 0000 0000 0000 000000
2015-01-14 03:10:46,0.25,6.79,0.00,22.73,27.53,30.64,4.85,27.77,1029.35,2026.99,1575.30,1920.02,2084.05,350.15,352.52,25.95,0000 0000 0000 0000 000000
2015-01-14 03:15:47,0.26,6.80,0.00,22.73,27.52,30.62,4.90,27.75,1029.36,2026.99,1574.04,1919.04,2082.94,350.24,352.46,25.98,0000 0000 0000 0000 000000
2015-01-14 03:20:48,0.27,6.80,0.00,22.73,27.52,30.61,4.86,27.87,1029.31,2026.99,1572.86,1918.03,2081.88,349.76,351.92,26.01,0000 0000 0000 0000 000000
2015-01-14 03:25:50,0.26,6.81,0.00,22.74,27.52,30.62,4.84,27.96,1029.31,2026.99,1571.72,1917.06,2080.83,350.06,352.47,26.04,0000 0000 0000 0000 000000
2015-01-14 03:30:51,0.28,6.82,0.00,22.71,27.51,30.61,4.93,28.00,1029.05,2026.99,1570.53,1916.10,2079.74,349.90,352.43,26.07,0000 0000 0000 0000 000000
2015-01-14 03:35:52,0.26,6.83,0.00,22.69,27.50,30.59,4.87,27.94,1028.85,2027.01,1569.28,1915.10,2078.67,350.03,352.25,26.10,0000 0000 0000 0000 000000
2015-01-14 03:40:53,0.28,6.83,0.00,22.66,27.50,30.61,4.91,28.00,1028.90,2027.02,1567.92,1914.11,2077.65,350.51,352.75,26.13,0000 0000 0000 0000 000000
2015-01-14 03:45:54,0.29,6.84,0.00,22.66,27.50,30.61,4.81,28.09,1028.84,2027.06,1566.72,1913.15,2076.60,349.62,351.80,26.16,0000 0000 0000 0000 000000
2015-01-14 03:50:55,0.27,6.85,0.00,22.62,27.48,30.61,4.83,28.14,1028.71,2027.08,1565.57,1912.19,2075.60,349.88,352.29,26.18,0000 0000 0000 0000 000000
2015-01-14 03:55:57,0.27,6.86,0.00,22.59,27.47,30.60,4.80,27.93,1028.75,2027.14,1564.43,1911.29,2074.55,349.14,351.43,26.21,0000 0000 0000 0000 000000
2015-01-14 04:00:58,0.29,6.87,0.00,22.62,27.47,30.59,4.92,27.97,1028.80,2027.30,1563.26,1910.29,2073.49,349.79,352.06,26.24,0000 0000 0000 0000 000000
2015-01-14 04:05:59,0.28,6.88,0.00,22.57,27.46,30.58,4.84,27.88,1028.82,2027.48,1562.09,1909.38,2072.51,350.08,352.37,26.27,0000 0000 0000 0000 000000
2015-01-14 04:11:01,0.30,6.88,0.00,22.56,27.45,30.56,4.93,27.86,1028.84,2027.76,1561.00,1908.53,2071.63,350.60,353.15,26.30,0000 0000 0000 0000 000000
2015-01-14 04:16:02,0.28,6.89,0.00,22.58,27.45,30.56,4.83,27.97,1028.85,2027.78,1559.81,1907.56,2070.54,349.67,351.99,26.33,0000 0000 0000 0000 000000
2015-01-14 04:21:03,0.27,6.90,0.00,22.53,27.43,30.53,4.76,28.19,1028.98,2027.77,1558.67,1906.54,2069.49,349.38,351.68,26.36,0000 0000 0000 0000 000000
2015-01-14 04:26:05,0.31,6.91,0.00,22.54,27.42,30.54,4.83,28.07,1028.91,2027.92,1557.44,1905.52,2068.33,349.95,352.43,26.39,0000 0000 0000 0000 000000
2015-01-14 04:31:06,0.25,6.92,0.00,22.53,27.42,30.52,4.93,28.19,1028.85,2027.95,1556.23,1904.58,2067.27,350.34,352.67,26.42,0000 0000 0000 0000 000000
2015-01-14 04:36:07,0.23,6.93,0.00,22.50,27.40,30.51,4.87,28.23,1028.98,2027.95,1555.09,1903.70,2066.24,350.04,352.83,26.45,0000 0000 0000 0000 000000
2015-01-14 04:41:09,0.29,6.93,0.00,22.51,27.40,30.51,4.95,28.27,1028.72,2027.96,1553.90,1902.67,2065.19,350.34,352.71,26.48,0000 0000 0000 0000 000000
2015-01-14 04:46:10,0.26,6.94,0.00,22.49,27.38,30.51,4.87,28.16,1028.34,2027.98,1552.71,1901.77,2064.19,350.14,352.53,26.51,0000 0000 0000 0000 000000
2015-01-14 04:51:11,0.24,6.95,0.00,22.45,27.37,30.48,4.90,28.00,1028.40,2027.99,1551.61,1900.88,2063.23,350.36,352.87,26.54,0000 0000 0000 0000 000000
2015-01-14 04:56:12,0.23,6.96,0.00,22.44,27.35,30.49,4.82,27.98,1028.80,2027.99,1550.63,1900.00,2062.26,349.72,352.39,26.57,0000 0000 0000 0000 000000
2015-01-14 05:01:14,0.25,6.96,0.00,22.40,27.35,30.47,4.90,27.84,1028.82,2027.99,1549.52,1899.12,2061.37,350.33,352.76,26.59,0000 0000 0000 0000 000000
2015-01-14 05:06:15,0.24,6.97,0.00,22.42,27.32,30.45,4.88,27.75,1028.82,2027.99,1548.47,1898.27,2060.46,350.12,352.69,26.62,0000 0000 0000 0000 000000
2015-01-14 05:11:17,0.23,6.98,0.00,22.41,27.32,30.43,4.92,28.02,1028.78,2027.99,1547.46,1897.46,2059.60,350.28,352.70,26.65,0000 0000 0000 0000 000000
2015-01-14 05:16:18,0.19,6.98,0.00,22.40,27.30,30.41,4.77,27.90,1028.82,2027.99,1546.48,1896.75,2058.77,349.63,352.50,26.68,0000 0000 0000 0000 000000
2015-01-14 05:21:19,0.18,6.99,0.00,22.43,27.30,30.38,4.85,27.77,1028.83,2028.01,1545.56,1895.97,2057.90,349.88,352.04,26.71,0000 0000 0000 0000 000000
2015-01-14 05:26:20,0.25,7.00,0.00,22.43,27.28,30.38,4.89,27.98,1028.65,2028.02,1544.52,1895.09,2057.02,350.13,352.76,26.74,0000 0000 0000 0000 000000
2015-01-14 05:31:21,0.25,7.00,0.00,22.42,27.27,30.35,4.96,27.98,1028.37,2028.04,1543.54,1894.23,2056.11,350.39,352.61,26.77,0000 0000 0000 0000 000000
2015-01-14 05:36:22,0.25,7.01,0.00,22.43,27.26,30.36,4.79,27.96,1028.34,2028.03,1542.46,1893.43,2055.16,349.47,351.94,26.80,0000 0000 0000 0000 000000
2015-01-14 05:41:24,0.23,7.02,0.00,22.43,27.25,30.35,4.82,28.02,1028.34,2028.05,1541.36,1892.65,2054.28,349.75,352.12,26.83,0000 0000 0000 0000 000000
2015-01-14 05:46:25,0.18,7.02,0.00,22.40,27.25,30.33,4.86,27.81,1028.34,2028.06,1540.50,1891.91,2053.45,349.65,352.01,26.86,0000 0000 0000 0000 000000
2015-01-14 05:51:26,0.26,7.03,0.00,22.43,27.24,30.33,4.80,27.77,1028.41,2028.16,1539.54,1891.06,2052.63,349.53,351.76,26.89,0000 0000 0000 0000 000000
2015-01-14 05:56:27,0.24,7.04,0.00,22.37,27.22,30.33,4.96,28.08,1028.55,2028.31,1538.64,1890.32,2051.83,350.38,352.76,26.92,0000 0000 0000 0000 000000
2015-01-14 06:01:29,0.26,7.04,0.00,22.39,27.22,30.30,4.85,27.90,1028.65,2028.53,1537.73,1889.64,2051.02,350.11,352.77,26.95,0000 0000 0000 0000 000000
2015-01-14 06:06:30,0.22,7.05,0.00,22.40,27.22,30.31,4.87,28.09,1028.81,2028.85,1536.80,1888.95,2050.18,350.22,352.58,26.98,0000 0000 0000 0000 000000
2015-01-14 06:11:31,0.22,7.06,0.00,22.40,27.20,30.30,4.83,27.90,1028.81,2028.83,1535.89,1888.09,2049.36,349.91,352.61,27.01,0000 0000 0000 0000 000000
2015-01-14 06:16:32,0.23,7.07,0.00,22.40,27.20,30.29,4.86,27.84,1028.82,2028.86,1535.03,1887.36,2048.53,349.85,352.65,27.03,0000 0000 0000 0000 000000
2015-01-14 06:21:33,0.23,7.07,0.00,22.42,27.20,30.28,4.88,27.93,1028.82,2028.94,1534.15,1886.54,2047.67,349.95,352.50,27.06,0000 0000 0000 0000 000000
2015-01-14 06:26:35,0.16,7.08,0.00,22.39,27.19,30.27,4.84,28.23,1028.82,2028.95,1533.21,1885.81,2047.01,349.97,352.45,27.09,0000 0000 0000 0000 000000
2015-01-14 06:31:36,0.22,7.09,0.00,22.40,27.17,30.29,4.83,28.26,1028.82,2028.97,1532.22,1885.03,2046.32,349.84,352.24,27.12,0000 0000 0000 0000 000000
2015-01-14 06:36:38,0.24,7.09,0.00,22.42,27.17,30.27,4.76,27.96,1028.82,2028.98,1531.30,1884.23,2045.58,349.64,352.22,27.15,0000 0000 0000 0000 000000
2015-01-14 06:41:39,0.22,7.10,0.00,22.45,27.17,30.25,4.86,27.84,1028.83,2028.97,1530.19,1883.45,2044.76,349.90,352.46,27.18,0000 0000 0000 0000 000000
2015-01-14 06:46:40,0.16,7.10,0.00,22.45,27.17,30.24,4.78,27.75,1028.84,2028.99,1529.37,1882.86,2044.01,349.76,352.55,27.21,0000 0000 0000 0000 000000
2015-01-14 06:51:41,0.22,7.11,0.00,22.45,27.16,30.24,4.84,27.88,1028.93,2028.99,1528.54,1882.06,2043.16,349.97,352.37,27.24,0000 0000 0000 0000 000000
2015-01-14 06:56:42,0.21,7.12,0.00,22.49,27.15,30.22,4.89,27.83,1029.01,2028.99,1527.72,1881.34,2042.44,350.17,352.59,27.27,0000 0000 0000 0000 000000
2015-01-14 07:01:44,0.22,7.12,0.00,22.49,27.15,30.12,4.94,27.89,1028.93,2028.99,1526.72,1880.63,2041.58,350.34,352.85,27.30,0000 0000 0000 0000 000000
2015-01-14 07:06:45,0.15,7.13,0.00,22.51,27.15,30.13,4.91,28.02,1028.89,2028.99,1525.83,1879.96,2040.81,350.36,352.96,27.33,0000 0000 0000 0000 000000
2015-01-14 07:11:46,0.21,7.14,0.00,22.56,27.15,30.11,4.88,28.09,1028.80,2028.99,1524.90,1879.11,2039.99,349.81,352.29,27.36,0000 0000 0000 0000 000000
2015-01-14 07:16:47,0.24,7.14,0.00,22.55,27.15,30.08,4.81,28.10,1028.83,2028.99,1523.99,1878.32,2039.10,349.77,352.23,27.39,0000 0000 0000 0000 000000
2015-01-14 07:21:49,0.22,7.15,0.00,22.54,27.16,30.14,4.82,28.01,1028.85,2028.99,1523.09,1877.60,2038.24,350.33,352.62,27.41,0000 0000 0000 0000 000000
2015-01-14 07:26:50,0.20,7.15,0.00,22.55,27.17,30.11,4.83,27.88,1028.83,2028.99,1522.15,1876.83,2037.41,349.62,352.05,27.44,0000 0000 0000 0000 000000
2015-01-14 07:31:51,0.22,7.16,0.00,22.59,27.17,30.10,4.94,28.32,1028.64,2028.99,1521.17,1876.01,2036.59,350.27,352.51,27.47,0000 0000 0000 0000 000000
2015-01-14 07:36:52,0.24,7.17,0.00,22.59,27.17,30.11,4.87,28.50,1028.22,2028.99,1520.11,1875.13,2035.70,350.05,352.12,27.50,0000 0000 0000 0000 000000
2015-01-14 07:41:53,0.22,7.17,0.00,22.54,27.17,30.17,4.88,28.57,1028.37,2028.99,1519.20,1874.32,2034.89,349.86,351.81,27.53,0000 0000 0000 0000 000000
2015-01-14 07:46:54,0.21,7.18,0.00,22.52,27.17,30.15,4.89,28.04,1029.33,2028.99,1518.37,1873.65,2034.01,350.18,352.75,27.56,0000 0000 0000 0000 000000
2015-01-14 07:51:56,0.19,7.19,0.00,22.54,27.17,30.22,4.90,27.92,1029.89,2028.99,1517.41,1872.93,2033.10,349.77,352.84,27.59,0000 0000 0000 0000 000000
2015-01-14 07:56:57,0.23,7.19,0.00,22.52,27.17,30.19,4.84,27.83,1029.85,2028.99,1516.58,1872.09,2032.27,350.18,352.89,27.62,0000 0000 0000 0000 000000
2015-01-14 08:01:58,0.22,7.20,0.00,22.55,27.17,30.19,4.84,27.99,1029.97,2028.99,1515.72,1871.36,2031.50,349.71,352.55,27.65,0000 0000 0000 0000 000000
2015-01-14 08:07:00,0.23,7.20,0.00,22.57,27.17,30.18,4.98,27.91,1029.82,2028.98,1514.76,1870.57,2030.55,350.22,353.14,27.68,0000 0000 0000 0000 000000
2015-01-14 08:12:01,0.19,7.21,0.00,22.56,27.17,30.15,4.90,28.04,1029.78,2028.99,1513.80,1869.80,2029.69,349.75,352.50,27.71,0000 0000 0000 0000 000000
2015-01-14 08:17:02,0.22,7.22,0.00,22.56,27.18,30.12,4.86,27.95,1029.72,2028.98,1512.82,1868.95,2028.78,349.91,352.62,27.74,0000 0000 0000 0000 000000
2015-01-14 08:22:04,0.21,7.23,0.00,22.58,27.19,30.15,4.88,27.89,1029.42,2028.99,1511.86,1868.09,2027.95,349.86,352.50,27.77,0000 0000 0000 0000 000000
2015-01-14 08:27:05,0.25,7.23,0.00,22.60,27.20,30.12,4.87,28.06,1029.32,2028.99,1510.87,1867.34,2027.08,350.39,352.79,27.80,0000 0000 0000 0000 000000
2015-01-14 08:32:06,0.20,7.24,0.00,22.60,27.20,30.10,4.96,28.08,1029.33,2028.99,1510.00,1866.66,2026.21,350.56,352.90,27.82,0000 0000 0000 0000 000000
2015-01-14 08:37:07,0.23,7.25,0.00,22.57,27.20,30.12,4.97,28.09,1029.34,2028.97,1509.02,1865.81,2025.32,350.34,352.82,27.85,0000 0000 0000 0000 000000
2015-01-14 08:42:09,0.23,7.25,0.00,22.58,27.20,30.12,4.83,27.78,1029.31,2028.96,1507.92,1864.97,2024.34,349.86,352.38,27.88,0000 0000 0000 0000 000000
2015-01-14 08:47:10,0.23,7.26,0.00,22.61,27.20,30.13,4.83,27.89,1029.40,2028.99,1506.99,1864.09,2023.56,350.12,352.76,27.91,0000 0000 0000 0000 000000
2015-01-14 08:52:11,0.23,7.27,0.00,22.61,27.21,30.12,4.81,27.77,1029.52,2028.96,1506.06,1863.38,2022.69,349.96,352.48,27.94,0000 0000 0000 0000 000000
2015-01-14 08:57:12,0.24,7.27,0.00,22.60,27.22,30.12,4.79,27.68,1029.32,2028.93,1505.09,1862.47,2021.70,350.02,352.49,27.97,0000 0000 0000 0000 000000
2015-01-14 09:02:13,0.21,7.28,0.00,22.62,27.22,30.10,4.91,27.85,1029.31,2028.89,1504.10,1861.68,2020.79,350.47,353.00,28.00,0000 0000 0000 0000 000000
2015-01-14 09:07:15,0.21,7.29,0.00,22.67,27.22,30.11,4.75,27.92,1029.29,2028.87,1503.13,1860.86,2019.93,350.06,352.55,28.03,0000 0000 0000 0000 000000
2015-01-14 09:12:16,0.19,7.29,0.00,22.66,27.22,30.09,4.84,27.87,1029.31,2028.75,1502.07,1860.02,2019.03,349.77,352.26,28.06,0000 0000 0000 0000 000000
2015-01-14 09:17:17,0.22,7.30,0.00,22.69,27.23,30.09,4.93,27.88,1029.31,2028.53,1501.08,1859.15,2018.10,350.22,352.72,28.09,0000 0000 0000 0000 000000
2015-01-14 09:22:19,0.23,7.31,0.00,22.72,27.25,30.10,4.77,27.93,1029.31,2028.36,1500.08,1858.31,2017.20,349.09,351.48,28.12,0000 0000 0000 0000 000000
2015-01-14 09:27:20,0.24,7.31,0.00,22.69,27.25,30.11,4.91,27.99,1029.31,2028.38,1499.08,1857.57,2016.35,350.28,352.65,28.15,0000 0000 0000 0000 000000
2015-01-14 09:32:21,0.14,7.32,0.00,22.71,27.25,30.13,4.89,27.78,1029.36,2028.34,1498.14,1856.89,2015.66,350.31,352.75,28.18,0000 0000 0000 0000 000000
2015-01-14 09:37:22,0.22,7.32,0.00,22.75,27.26,30.13,4.83,27.68,1029.34,2028.19,1497.29,1856.05,2014.66,349.95,352.31,28.21,0000 0000 0000 0000 000000
2015-01-14 09:42:24,0.23,7.33,0.00,22.76,27.27,30.13,4.83,27.66,1029.41,2028.13,1496.21,1855.17,2013.85,349.64,351.91,28.24,0000 0000 0000 0000 000000
2015-01-14 09:47:25,0.17,7.34,0.00,22.78,27.27,30.12,4.88,27.86,1029.71,2028.13,1495.39,1854.77,2013.02,350.20,352.74,28.26,0000 0000 0000 0000 000000
2015-01-14 09:52:26,0.21,7.34,0.00,22.79,27.29,30.13,4.85,27.91,1029.79,2028.10,1494.50,1854.01,2012.16,349.94,352.02,28.29,0000 0000 0000 0000 000000
2015-01-14 09:57:27,0.23,7.35,0.00,22.81,27.30,30.13,4.92,27.91,1029.80,2028.07,1493.62,1853.17,2011.37,350.67,352.94,28.32,0000 0000 0000 0000 000000
2015-01-14 10:02:29,0.20,7.35,0.00,22.81,27.30,30.13,4.90,28.01,1029.80,2028.04,1492.81,1852.46,2010.59,350.17,352.28,28.35,0000 0000 0000 0000 000000
2015-01-14 10:07:30,0.17,7.36,0.00,22.83,27.32,30.13,4.91,27.89,1029.80,2028.01,1491.87,1851.77,2009.73,350.13,352.85,28.38,0000 0000 0000 0000 000000
2015-01-14 10:12:31,0.21,7.37,0.00,22.87,27.32,30.13,4.82,27.84,1029.80,2028.01,1490.92,1850.92,2008.82,349.84,352.48,28.41,0000 0000 0000 0000 000000
2015-01-14 10:17:32,0.23,7.37,0.00,22.92,27.34,30.13,4.85,27.77,1029.72,2028.00,1489.94,1850.05,2007.97,350.05,352.20,28.44,0000 0000 0000 0000 000000
2015-01-14 10:22:34,0.26,7.38,0.00,22.91,27.35,30.16,4.76,27.90,1029.45,2028.00,1488.95,1849.19,2007.04,349.72,351.89,28.47,0000 0000 0000 0000 000000
2015-01-14 10:27:35,0.25,7.39,0.00,22.92,27.37,30.14,4.81,27.93,1029.61,2028.00,1488.01,1848.37,2006.11,349.74,351.90,28.50,0000 0000 0000 0000 000000
2015-01-14 10:32:36,0.23,7.39,0.00,22.91,27.37,30.19,4.84,27.72,1029.77,2028.00,1487.04,1847.67,2005.32,349.80,352.09,28.53,0000 0000 0000 0000 000000
2015-01-14 10:37:38,0.21,7.40,0.00,22.91,27.39,30.21,4.83,27.85,1029.80,2028.00,1486.02,1846.84,2004.41,349.78,351.89,28.56,0000 0000 0000 0000 000000
2015-01-14 10:42:39,0.24,7.41,0.00,22.93,27.40,30.22,4.83,27.94,1029.75,2027.99,1485.07,1846.00,2003.44,350.04,352.29,28.59,0000 0000 0000 0000 000000
2015-01-14 10:47:40,0.24,7.42,0.00,22.92,27.41,30.24,4.93,27.90,1029.60,2027.99,1484.19,1845.17,2002.61,350.66,352.78,28.62,0000 0000 0000 0000 000000
2015-01-14 10:52:41,0.25,7.42,0.00,22.93,27.42,30.25,4.76,27.89,1029.43,2027.98,1483.10,1844.29,2001.71,349.91,351.90,28.65,0000 0000 0000 0000 000000
2015-01-14 10:57:43,0.23,7.43,0.00,22.94,27.43,30.27,4.95,28.13,1029.71,2027.98,1482.11,1843.43,2000.88,350.47,352.70,28.67,0000 0000 0000 0000 000000
2015-01-14 11:02:44,0.20,7.44,0.00,22.96,27.45,30.28,4.84,27.78,1029.78,2027.98,1481.15,1842.80,2000.02,349.62,351.82,28.70,0000 0000 0000 0000 000000
2015-01-14 11:07:45,0.23,7.44,0.00,22.92,27.45,30.31,4.86,27.96,1029.48,2027.97,1480.27,1841.99,1999.16,349.67,351.83,28.73,0000 0000 0000 0000 000000
2015-01-14 11:12:46,0.24,7.45,0.00,22.95,27.47,30.33,4.84,27.97,1029.32,2027.96,1479.30,1841.13,1998.22,350.05,352.06,28.76,0000 0000 0000 0000 000000
2015-01-14 11:17:47,0.24,7.46,0.00,22.92,27.47,30.32,4.82,27.98,1029.30,2027.93,1478.32,1840.33,1997.43,349.92,352.03,28.79,0000 0000 0000 0000 000000
2015-01-14 11:22:49,0.21,7.46,0.00,22.93,27.49,30.33,4.82,28.03,1029.31,2027.93,1477.35,1839.68,1996.66,350.59,352.54,28.82,0000 0000 0000 0000 000000
2015-01-14 11:27:50,0.17,7.47,0.00,22.92,27.50,30.38,4.93,28.07,1029.36,2027.91,1476.51,1838.94,1995.90,350.54,352.57,28.85,0000 0000 0000 0000 000000
2015-01-14 11:32:51,0.22,7.48,0.00,22.89,27.50,30.40,4.83,28.02,1029.30,2027.88,1475.67,1838.11,1995.05,349.70,351.73,28.88,0000 0000 0000 0000 000000
2015-01-14 11:37:52,0.23,7.48,0.00,22.88,27.50,30.41,4.84,28.10,1029.32,2027.92,1474.77,1837.50,1994.25,349.97,351.85,28.91,0000 0000 0000 0000 000000
2015-01-14 11:42:53,0.16,7.49,0.00,22.86,27.51,30.44,4.85,28.06,1029.50,2027.93,1473.99,1836.85,1993.54,350.42,352.56,28.94,0000 0000 0000 0000 000000
2015-01-14 11:47:55,0.18,7.49,0.00,22.84,27.52,30.44,4.91,27.95,1029.80,2027.86,1473.13,1836.05,1992.79,350.10,352.43,28.97,0000 0000 0000 0000 000000
2015-01-14 11:52:56,0.20,7.50,0.00,22.86,27.52,30.47,4.86,27.93,1029.82,2027.61,1472.22,1835.20,1991.93,350.44,352.90,29.00,0000 0000 0000 0000 000000
2015-01-14 11:57:57,0.23,7.50,0.00,22.89,27.52,30.47,4.91,27.91,1029.80,2027.50,1471.40,1834.51,1991.08,350.10,352.49,29.03,0000 0000 0000 0000 000000
2015-01-14 12:02:59,0.19,7.51,0.00,22.89,27.52,30.47,4.82,27.86,1029.69,2027.46,1470.50,1833.72,1990.25,349.68,351.94,29.05,0000 0000 0000 0000 000000
2015-01-14 12:08:00,0.35,7.52,0.00,22.88,27.53,30.47,4.88,28.53,1029.06,2027.81,1469.14,1832.90,1989.30,350.74,352.94,29.08,0000 0000 0000 0000 000000
2015-01-14 12:13:01,0.20,7.53,0.00,22.89,27.54,30.48,4.92,28.65,1028.93,2027.82,1468.41,1832.06,1988.50,350.01,351.94,29.11,0000 0000 0000 0000 000000
2015-01-14 12:18:02,0.20,7.53,0.00,22.85,27.54,30.56,4.84,28.50,1028.91,2027.67,1467.68,1831.32,1987.70,350.06,352.01,29.14,0000 0000 0000 0000 000000
2015-01-14 12:23:04,0.22,7.54,0.00,22.82,27.54,30.59,4.84,28.44,1028.86,2027.78,1466.78,1830.65,1986.88,350.28,352.26,29.17,0000 0000 0000 0000 000000
2015-01-14 12:28:05,0.14,7.55,0.00,22.80,27.54,30.63,4.84,28.45,1029.25,2027.70,1465.92,1829.93,1986.05,349.74,351.92,29.20,0000 0000 0000 0000 000000
2015-01-14 12:33:06,0.27,7.55,0.00,22.74,27.53,30.67,4.94,28.57,1029.31,2027.71,1465.01,1829.08,1985.20,350.29,352.55,29.23,0000 0000 0000 0000 000000
2015-01-14 12:38:08,0.25,7.56,0.00,22.69,27.52,30.68,4.83,28.57,1029.31,2027.70,1464.10,1828.34,1984.43,349.63,351.97,29.26,0000 0000 0000 0000 000000
2015-01-14 12:43:09,0.19,7.56,0.00,22.61,27.52,30.67,4.92,28.17,1029.32,2027.77,1463.26,1827.78,1983.81,350.35,352.91,29.29,0000 0000 0000 0000 000000
2015-01-14 12:48:10,0.23,7.57,0.00,22.59,27.51,30.66,4.91,28.08,1029.33,2027.91,1462.40,1827.03,1983.05,350.26,352.92,29.32,0000 0000 0000 0000 000000
2015-01-14 12:53:11,0.22,7.58,0.00,22.57,27.50,30.64,4.92,28.26,1029.53,2027.96,1461.70,1826.31,1982.37,350.31,352.87,29.35,0000 0000 0000 0000 000000
2015-01-14 12:58:12,0.16,7.58,0.00,22.52,27.49,30.62,4.80,28.14,1029.92,2027.96,1460.80,1825.76,1981.72,349.68,352.55,29.38,0000 0000 0000 0000 000000
2015-01-14 13:03:13,0.19,7.59,0.00,22.47,27.47,30.59,4.93,28.01,1030.31,2027.98,1459.90,1825.02,1980.97,349.65,352.65,29.41,0000 0000 0000 0000 000000